Tracking 22879 objects as of 21-Apr-2021
HD Live streaming from Space Station
objects crossing your sky now

STARLINK-2334

Track STARLINK-2334 now!
10-day predictions
STARLINK-2334 is classified as:


NORAD ID: 47792
Int'l Code: 2021-018F
Perigee: 355.9 km
Apogee: 357.7 km
Inclination: 53.0 °
Period: 91.5 minutes
Semi major axis: 6727 km
RCS: Unknown
Launch date: March 11, 2021
Source: United States (US)
Launch site: AIR FORCE EASTERN TEST RANGE (AFETR)
aabbcc
Your satellite tracking list
Your tracking list is empty




NASA's NSSDC Master Catalog

Two Line Element Set (TLE):
1 47792U 21018F   21110.83335648  .00011356  00000-0  85074-4 0  9990
2 47792  53.0495 346.8137 0001283  82.9971 197.7185 15.73236502  7288
Source of the keplerian elements: AFSPC